Location: Middlebury
(44.0153°N, 73.1678°W)
Time: 09:09:18
(UTC-04:00)

UWE-3 - Pass Details

Date: 25 June 2024
Orbit: 566 x 652 km, 97.8° (Epoch: 12 July)

Event Time Altitude Azimuth Distance (km) Brightness Sun altitude
Rises 02:49:56 0° 21° (NNE) 2,860 ? -17.7°
Reaches altitude 10° 02:52:19 10° 31° (NNE) 1,937 ? -17.5°
Maximum altitude 02:56:07 33° 96° (E) 995 ? -17.2°
Enters shadow 02:58:48 16° 153° (SSE) 1,524 ? -16.9°
